"Pseudo-MPEC" for P12oImJ

Created 2026 Aug 7 13:35:05 UT using Find_Orb

Click here for an explanation of pseudo-MPECs

 
 Astrometry: 
     P12oImJ*0C2026 07 27.48649723 07 49.590+13 35 11.86   ~7RDo 20.44iXNEOCPF51
     P12oImJ 0C2026 07 27.49841223 07 50.613+13 35 19.86   ~7RDo 20.57iXNEOCPF51
     P12oImJ 0C2026 07 27.51041123 07 51.657+13 35 27.88   ~7RDo 20.66iXNEOCPF51
     P12oImJ 0C2026 07 27.52255723 07 52.697+13 35 35.89   ~7RDo 20.61iXNEOCPF51
     P12oImJ 0C2026 07 27.59550023 07 59.003+13 36 23.86   ~7RL5 20.53GVNEOCPF52
     P12oImJ 0C2026 07 27.59613323 07 59.054+13 36 24.32   ~7RL5 20.55GVNEOCPF52
     P12oImJ 0C2026 07 28.52258823 09 24.338+13 46 26.34   ~7SH5 20.36GVNEOCPF52
     P12oImJ 0C2026 07 28.52339523 09 24.424+13 46 26.92   ~7SH5 20.46GVNEOCPF52
     P12oImJ KC2026 07 28.91790523 10 00.689+13 50 30.44   ~7SMox19.6 GXNEOCPL49
     P12oImJ KC2026 07 28.92434023 10 01.229+13 50 35.30   ~7SMox19.6 GXNEOCPL49
     P12oImJ KC2026 07 28.93149323 10 01.934+13 50 39.01   ~7SMox19.8 GXNEOCPL49
     P12oImJ 0B2026 07 28.97631923 10 05.832+13 51 07.38   ~7T0Kx19.7 GXNEOCPS05
     P12oImJ 0B2026 07 28.98282423 10 06.420+13 51 12.67   ~7T0Kx18.7 GXNEOCPS05
     P12oImJ 0B2026 07 28.98979223 10 07.015+13 51 16.06   ~7T0Kx20.1 GXNEOCPS05
     P12oImJ 6B2026 07 29.08896223 10 16.058+13 52 22.57   ~7UEZ 20.3 GWNEOCPZ84
     P12oImJ 6B2026 07 29.10700623 10 17.631+13 52 34.46   ~7UEZ 21.1 GWNEOCPZ84
     P12oImJ KB2026 07 30.03433 23 11 41.96 +14 02 08.5    ~7U1o 19.9 GXNEOCPL04
     P12oImJ KB2026 07 30.05425 23 11 43.69 +14 02 20.6    ~7U1o 20.1 GXNEOCPL04
     P12oImJ 0C2026 07 30.19917623 11 56.680+14 03 52.67   ~7UAo 19.9 GWNEOCPZ31
     P12oImJ 0C2026 07 30.20213323 11 56.935+14 03 54.64   ~7UAo 20.0 GWNEOCPZ31
     P12oImJ 6B2026 07 31.10363323 13 18.782+14 12 53.63   ~7VCo 21.5 GWNEOCPZ84
     P12oImJ 6B2026 07 31.11429323 13 19.721+14 12 59.74   ~7VCo 21.1 GWNEOCPZ84
     P12oImJ 1C2026 07 31.43247723 13 48.461+14 16 04.57   ~7VEK       LNEOCP658
     P12oImJ 1C2026 07 31.43582223 13 48.750+14 16 06.70   ~7VEK       LNEOCP658
     P12oImJ 1C2026 07 31.43916723 13 49.043+14 16 08.70   ~7VEK       LNEOCP658
     P12oImJ 1C2026 07 31.44363423 13 49.412+14 16 11.23   ~7VEK       LNEOCP658
     P12oImJ 1C2026 07 31.44697923 13 49.669+14 16 13.50   ~7VEK       LNEOCP658
     P12oImJ KB2026 07 31.87207223 14 28.505+14 20 18.67   ~7VMZ 20.2 GXNEOCPM35
     P12oImJ KB2026 07 31.90001223 14 30.958+14 20 34.66   ~7VMZ 20.3 GXNEOCPM35
     P12oImJ 0C2026 08 02.94093423 17 33.630+14 39 21.02   ~83G5 19.5 GXNEOCPR59
     P12oImJ 0C2026 08 02.98931723 17 37.729+14 39 47.69   ~83G5 19.7 GXNEOCPR59
     P12oImJ KC2026 08 03.22019423 17 58.30 +14 41 48.7    ~836K 20.4 GVNEOCPH21
     P12oImJ KC2026 08 03.22579123 17 58.78 +14 41 51.9    ~836K 20.1 GVNEOCPH21
     P12oImJ KC2026 08 03.23138423 17 59.26 +14 41 54.4    ~836K 20.2 GVNEOCPH21
     P12oImJ KC2026 08 03.23418123 17 59.48 +14 41 56.0    ~836K 20.7 GVNEOCPH21
     P12oImJ KC2026 08 03.23977323 17 59.96 +14 41 59.5    ~836K 21.1 GVNEOCPH21
     P12oImJ KB2026 08 03.91119023 18 59.525+14 47 40.92   ~83Mo       XNEOCP126
     P12oImJ KB2026 08 03.92880523 19 01.020+14 47 50.02   ~83Mo       XNEOCP126
     P12oImJ KC2026 08 04.22276523 19 27.00 +14 50 19.9    ~8465 20.5 GVNEOCPH21
     P12oImJ KC2026 08 04.22556123 19 27.25 +14 50 20.8    ~8465 21.5 GVNEOCPH21
     P12oImJ KC2026 08 04.23394923 19 27.93 +14 50 25.8    ~8465 20.4 GVNEOCPH21
     P12oImJ KC2026 08 05.26102523 20 58.08 +14 58 44.6    ~8575 20.6 GVNEOCPH21
     P12oImJ KC2026 08 05.26382323 20 58.31 +14 58 46.0    ~8575 20.7 GVNEOCPH21
     P12oImJ KC2026 08 05.26662023 20 58.55 +14 58 47.5    ~8575 20.4 GVNEOCPH21
     P12oImJ KB2026 08 07.00261623 23 29.51 +15 11 48.5    ~870Z 20.4 GVNEOCPL01
     P12oImJ KB2026 08 07.00727123 23 29.90 +15 11 50.5    ~870Z 20.6 GVNEOCPL01
     P12oImJ KB2026 08 07.01192123 23 30.26 +15 11 52.2    ~870Z 20.2 GVNEOCPL01
     P12oImJ KB2026 08 07.16567123 23 43.858+15 12 56.41   ~875Z 20.3 GWNEOCPX04
     P12oImJ KB2026 08 07.17998823 23 45.005+15 13 02.46   ~875Z 20.6 GWNEOCPX04
     P12oImJ 0C2026 08 07.41816023 24 05.791+15 14 49.17   ~87Co 20.38wXNEOCPF52
     P12oImJ 0C2026 08 07.42893623 24 06.666+15 14 53.87   ~87Co 20.44wXNEOCPF52
     P12oImJ 0C2026 08 07.43974723 24 07.544+15 14 58.55   ~87Co 20.41wXNEOCPF52

Station data:
(126) Monte Viseggi  (N44.132565 E9.790150)  Italy.
   Observers L. Sannino, A. Mancuso, S. Mercanti, D. Agnetti. Measurers L.
   Sannino, A. Mancuso. 0.41-m f/5.3 reflector + CCD.
(658) Dominion Astrophysical Observatory  (N48.519984 W123.417000)
   Canada/BritColumbia.  Observer D. D. Balam. Measurers D. D. Balam, D. W.
   E. Green, C. E. Spratt. 1.82-m reflector + CCD.
(F51) Pan-STARRS 1, Haleakala  (N20.707234 W156.255910)  US/Hawaii.
   Observers J. Herman, T. Lowe, P. Minguez, A. Schultz, I. Smith. Measurers
   K. Chambers, T. de Boer, J. Fairlamb, H. Gao, M. Huber, C.-C. Lin, E.
   Magnier, Y. Ramanjooloo, R. Wainscoat, R. Weryk. 1.8-m Ritchey-Chrétien +
   CCD.
(F52) Pan-STARRS 2, Haleakala  (N20.707382 W156.255910)  US/Hawaii.
   Observers J. Herman, T. Lowe, P. Minguez, A. Schultz, I. Smith. Measurers
   K. Chambers, T. de Boer, J. Fairlamb, H. Gao, M. Huber, C.-C. Lin, E.
   Magnier, Y. Ramanjooloo, R. Wainscoat, R. Weryk. 1.8-m Ritchey-Chrétien +
   CCD.
(H21) Astronomical Research Observatory, Westfield  (N39.483054 W87.968270)
   US/Illinois.  Observer R. Holmes. Measurers S. Foglia, L. Buzzi, T.
   Linder, R. Holmes. 0.40-m f/5.32 astrograph + CCD.
(L01) Višnjan Observatory, Tičan  (N45.290897 E13.749300)  Croatia.
   Observers K. Korlević, L. Poropat. Measurer K. Korlevic. 1.0-m f/2.9
   reflector + CCD.
(L04) ROASTERR-1 Observatory, Cluj-Napoca  (N46.820952 E23.596400)  Romania.
   Observer L. Hudin. 0.1-m f/9 refractor + CCD.
(L49) VEGA-Sternwarte, Dorfleiten  (N47.923896 E13.007300)  Austria.
(M35) PS Observatory, Parjol  (N46.575378 E26.616690)  Romania.  Observer R.
   Anghel. Measurers R. Anghel, A. Anghel. 0.2-m f/12 Cassegrain + CCD.
(R59) Camarasa Observatory, Astrocamp Nerpio  (N38.165429 W2.326580)  Spain.
(S05) Sternwarte Burghausen  (N48.173771 E12.833320)  Germany.
(X04) MCD Observatory, Saint-Anaclet  (N48.469951 W68.432530)  Canada/Quebec.
(Z31) Tenerife Observatory-LCO A, Tenerife  (N28.300419 W16.511650)  Canary
   Islands (Spain).  Observer M. Micheli. 1.0-m reflector + CCD.
(Z84) Calar Alto-Schmidt  (N37.224006 W2.548160)  Spain.  Observer R. Kresken.
    Measurers F. Ocaña, M. Micheli, R. Kresken. 0.8-m f/3 Schmidt + CCD.

Orbital elements:  P12oImJ
   Perihelion 2026 Sep 20.489446 +/- 0.0991 TT = 11:44:48.1 (JD 2461303.989446)
Epoch 2026 Aug  7.0 TT = JDT 2461259.5   Earth MOID: 0.3900   Ma: 0.0033
M 349.553951910 +/- 0.07            (J2000 ecliptic)             AutoNEOCP
n   0.234798338 +/- 0.00114         Peri.  165.222449 +/- 0.11
a   2.602192191 +/- 0.00845         Node   194.672325 +/- 0.045
e   0.46564027 +/- 0.00139          Incl.    9.245815 +/- 0.0051
P   4.19768                H 19.66  G  0.15   U  8.2
q 1.390506698 +/- 0.000908    Q 3.813877684 +/- 0.016
46 of 52 observations 2026 July 27-Aug. 7; mean residual 0".37
Residuals in arcseconds: 
260727 F51  .05+  .01+    260730 Z31  .36+  .50-    260803 126  .08-  1.0-    
260727 F51  .08-  .06+    260730 Z31  .40+  .31-    260803 126  .30-  1.1-    
260727 F51  .01+  .09+    260731 Z84  .17-  .04-    260804 H21  .66+  .06-    
260727 F51  .12-  .03+    260731 Z84  .27+  .24-    260804 H21  .86+  .60-    
260727 F52  .09+  .01-    260731 658  .14-  .33+    260804 H21  .45+  .12+    
260727 F52  .03+  .04+    260731 658  .12-  .50+    260805 H21  .66+  .09-    
260728 F52  .06-  .20-    260731 658  .04-  .55+    260805 H21  .63+  .04-    
260728 F52  .18+  .14-    260731 658  .26-  .47+    260805 H21  .74+  .11+    
260728 L49( 2.4-  .94-)   260731 658  .70-  .78+    260807 L01  .15+  .32+    
260728 L49( 2.9-  .24-)   260731 M35  .68-  .66+    260807 L01  .27+  .30+    
260728 L49( 1.9-  1.1-)   260731 M35  .49-  .25+    260807 L01  .04-  .01-    
260728 S05( 2.8-  1.6-)   260802 R59  .03+  .19-    260807 X04  .41+  .17+    
260728 S05( 2.5-  .45-)   260802 R59  .72-  .20+    260807 X04  .20-  .00     
260728 S05( 2.8-  1.5-)   260803 H21  .14+  .42+    260807 F52  .08-  .06-    
260729 Z84  .09-  .31-    260803 H21  .19+  .63+    260807 F52  .09-  .01-    
260729 Z84  .13+  .16+    260803 H21  .25+  .14+    260807 F52  .06-  .01+    
260730 L04  .19-  .12+    260803 H21  .01-  .24+    
260730 L04  .10-  .03+    260803 H21  .07+  .75+    

Ephemerides (geocentric):
Date (UTC) HH   RA             Dec           delta  r     elong  mag " sig PA
---- --------  ------------   ------------  ------ ------ -----  --- --------
2026 08 07 14  23 24 19.365   +15 16 00.08  .55658 1.4565 133.9 20.5 .053 172
2026 08 07 15  23 24 22.954   +15 16 17.23  .55632 1.4563 133.9 20.5 .056 171
2026 08 07 16  23 24 26.542   +15 16 34.34  .55606 1.4562 134.0 20.5 .059 171
2026 08 07 17  23 24 30.129   +15 16 51.39  .55580 1.4561 134.0 20.5 .062 170
2026 08 07 18  23 24 33.715   +15 17 08.40  .55554 1.4560 134.0 20.5 .065 170
2026 08 07 19  23 24 37.300   +15 17 25.37  .55529 1.4559 134.0 20.5 .068 169
2026 08 07 20  23 24 40.883   +15 17 42.28  .55503 1.4557 134.1 20.5 .071 169
2026 08 07 21  23 24 44.466   +15 17 59.15  .55477 1.4556 134.1 20.5 .074 169
2026 08 07 22  23 24 48.047   +15 18 15.97  .55451 1.4555 134.1 20.5 .078 168
2026 08 07 23  23 24 51.628   +15 18 32.74  .55426 1.4554 134.1 20.5 .081 168
2026 08 08 00  23 24 55.207   +15 18 49.47  .55400 1.4553 134.2 20.5 .084 168
2026 08 08 01  23 24 58.785   +15 19 06.14  .55374 1.4551 134.2 20.5 .088 167
2026 08 08 02  23 25 02.362   +15 19 22.77  .55349 1.4550 134.2 20.5 .091 167
2026 08 08 03  23 25 05.938   +15 19 39.35  .55323 1.4549 134.2 20.5 .094 167
2026 08 08 04  23 25 09.513   +15 19 55.88  .55298 1.4548 134.2 20.5 .098 167
